Tracking 31027 objects as of 19-Jul-2025
HD Live streaming from Space Station
objects crossing your sky now

DIAMANT B-P4 DEB

Track DIAMANT B-P4 DEB now!
10-day predictions


NORAD ID: 7654
Int'l Code: 1975-010C
Perigee: 790.4 km
Apogee: 1,041.9 km
Inclination: 49.8 °
Period: 103.2 minutes
Semi major axis: 7287 km
RCS: 0.0394 m2 (small)
Launch date: February 6, 1975
Source: France (FR)
Launch site: FRENCH GUIANA (FRGUI)

Note: This is SATELLITE DEBRIS
Your satellite tracking list
FENGYUN 1C DEB
Track 1 satellite(s)




NASA's NSSDC Master Catalog

Two Line Element Set (TLE):
1  7654U 75010C   25199.73715968  .00000116  00000-0  17150-3 0  9992
2  7654  49.8443  89.8105 0172576  51.7803 309.8493 13.95619462563612
Source of the keplerian elements: AFSPC